Date String (YYYY-MM-DD hh:mm:ss) UTC,Instrument flags,Ambient pressure (hPa),Sample flow (lpm),Bypass flow (lpm),Sample temperature (°C),Ambient temperature (°C),ASC tube jacket temperature (°C),LED temperature (°C),Box temperature (°C),Sample RH (%),Span deviation,Mass concentration (μg/m³),Mass concentration (μg/m³),Mass concentration (μg/m³)
DateTimeUTC,F1_M11,P_M11,Q1_M11,Q2_M11,T1_M11,T2_M11,T3_M11,T4_M11,T5_M11,U1_M11,ZSPAN_M11,X0_M11,X2_M11,X1_M11
2021-12-12 12:00:00,,0819.5,5.00,0.00,22.1,21.4,00.0,31.1,23.8,08.8,0000.0,0009.86,0004.15,0003.13
2021-12-12 12:01:00,,0819.4,5.00,0.00,22.1,21.4,00.0,31.1,23.8,08.8,0000.0,0010.34,0004.10,0003.09
2021-12-12 12:02:00,,0819.4,5.00,0.00,22.1,21.4,00.0,31.1,23.8,08.9,0000.0,0010.30,0004.01,0002.98
2021-12-12 12:03:00,,0819.4,5.01,0.00,22.1,21.4,00.0,31.1,23.8,08.9,0000.0,0010.21,0003.93,0002.85
2021-12-12 12:04:00,,0819.4,5.01,0.00,22.1,21.5,00.0,31.1,23.9,09.1,0000.0,0009.99,0003.80,0002.72
2021-12-12 12:05:00,,0819.3,5.01,0.00,22.1,21.4,00.0,31.1,23.8,08.9,0000.0,0010.61,0003.77,0002.66
2021-12-12 12:06:00,,0819.3,4.99,0.00,22.0,21.4,00.0,31.1,23.7,08.8,0000.0,0010.66,0003.78,0002.72
2021-12-12 12:07:00,,0819.4,5.01,0.00,22.0,21.3,00.0,31.1,23.7,08.8,0000.0,0010.47,0003.78,0002.77
2021-12-12 12:08:00,,0819.4,4.99,0.00,22.0,21.3,00.0,31.1,23.7,09.0,0000.0,0010.00,0003.71,0002.75
2021-12-12 12:09:00,,0819.3,5.00,0.00,22.0,21.5,00.0,31.1,23.8,09.2,0000.0,0010.18,0003.63,0002.67
2021-12-12 12:10:00,,0819.2,4.99,0.00,22.1,22.2,00.0,31.1,24.0,09.4,0000.0,0010.11,0003.57,0002.58
2021-12-12 12:11:00,,0819.3,5.01,0.00,22.3,22.9,00.0,31.2,24.3,09.5,0000.0,0009.77,0003.43,0002.42
2021-12-12 12:12:00,,0819.4,5.00,0.00,22.4,23.0,00.0,31.2,24.3,09.4,0000.0,0008.82,0003.30,0002.28
2021-12-12 12:13:00,,0819.5,4.99,0.00,22.4,22.8,00.0,31.2,24.3,09.3,0000.0,0008.51,0003.20,0002.20
2021-12-12 12:14:00,,0819.5,5.02,0.00,22.4,22.6,00.0,31.2,24.3,09.3,0000.0,0008.11,0003.14,0002.16
2021-12-12 12:15:00,,0819.6,5.00,0.00,22.4,22.4,00.0,31.3,24.3,09.2,0000.0,0007.64,0003.13,0002.14
2021-12-12 12:16:00,,0819.5,4.99,0.00,22.4,22.3,00.0,31.3,24.2,08.9,0000.0,0007.24,0003.12,0002.16
2021-12-12 12:17:00,,0819.4,5.02,0.00,22.4,22.1,00.0,31.3,24.1,08.8,0000.0,0007.80,0003.16,0002.17
2021-12-12 12:18:00,,0819.4,5.00,0.00,22.3,21.9,00.0,31.3,24.0,09.0,0000.0,0007.73,0003.10,0002.06
2021-12-12 12:19:00,,0819.3,5.00,0.00,22.3,21.8,00.0,31.3,24.0,09.0,0000.0,0007.36,0003.04,0002.01
2021-12-12 12:20:00,,0819.3,5.01,0.00,22.3,21.8,00.0,31.3,24.0,09.0,0000.0,0007.53,0003.06,0002.04
2021-12-12 12:21:00,,0819.4,5.00,0.00,22.3,21.7,00.0,31.3,24.0,08.9,0000.0,0008.04,0003.16,0002.10
2021-12-12 12:22:00,,0819.5,5.00,0.00,22.3,21.7,00.0,31.3,24.0,08.9,0000.0,0008.38,0003.29,0002.24
2021-12-12 12:23:00,,0819.7,4.99,0.00,22.3,21.7,00.0,31.3,24.1,09.0,0000.0,0008.72,0003.41,0002.41
2021-12-12 12:24:00,,0819.7,5.01,0.00,22.3,21.7,00.0,31.3,24.1,09.0,0000.0,0008.99,0003.55,0002.57
2021-12-12 12:25:00,,0819.7,4.99,0.00,22.3,21.7,00.0,31.3,24.0,09.0,0000.0,0009.23,0003.64,0002.70
2021-12-12 12:26:00,,0819.7,4.99,0.00,22.3,21.7,00.0,31.3,24.1,08.9,0000.0,0009.88,0003.76,0002.84
2021-12-12 12:27:00,,0819.7,5.02,0.00,22.3,21.7,00.0,31.3,24.0,08.9,0000.0,0009.89,0003.79,0002.90
2021-12-12 12:28:00,,0819.7,4.98,0.00,22.3,21.7,00.0,31.3,24.1,08.9,0000.0,0009.61,0003.76,0002.88
2021-12-12 12:29:00,,0819.6,5.01,0.00,22.3,21.7,00.0,31.3,24.0,08.9,0000.0,0009.69,0003.79,0002.96
2021-12-12 12:30:00,,0819.5,5.01,0.00,22.3,21.7,00.0,31.3,24.0,08.7,0000.0,0010.50,0003.89,0003.06
2021-12-12 12:31:00,,0819.5,4.98,0.00,22.3,21.6,00.0,31.3,24.0,08.8,0000.0,0010.62,0003.94,0003.12
2021-12-12 12:32:00,,0819.3,5.00,0.00,22.3,21.6,00.0,31.3,24.0,08.9,0000.0,0010.28,0003.94,0003.15
2021-12-12 12:33:00,,0819.3,5.01,0.00,22.3,21.7,00.0,31.3,24.0,08.9,0000.0,0010.13,0003.91,0003.14
2021-12-12 12:34:00,,0819.3,4.99,0.00,22.3,21.7,00.0,31.3,24.0,09.0,0000.0,0009.90,0003.85,0003.06
2021-12-12 12:35:00,,0819.5,5.00,0.00,22.3,21.6,00.0,31.3,24.0,09.0,0000.0,0009.99,0003.78,0002.97
2021-12-12 12:36:00,,0819.6,5.01,0.00,22.3,21.7,00.0,31.3,24.0,09.0,0000.0,0010.27,0003.78,0002.92
2021-12-12 12:37:00,,0819.7,5.00,0.00,22.3,21.7,00.0,31.3,24.0,09.0,0000.0,0009.74,0003.70,0002.86
2021-12-12 12:38:00,,0819.7,5.00,0.00,22.3,21.7,00.0,31.3,24.0,09.0,0000.0,0009.23,0003.61,0002.78
2021-12-12 12:39:00,,0819.5,4.98,0.00,22.3,21.7,00.0,31.3,24.0,09.0,0000.0,0008.76,0003.53,0002.71
2021-12-12 12:40:00,,0819.5,5.00,0.00,22.3,21.6,00.0,31.3,24.0,09.0,0000.0,0008.67,0003.49,0002.63
2021-12-12 12:41:00,,0819.4,4.98,0.00,22.3,21.6,00.0,31.3,24.0,09.1,0000.0,0007.97,0003.39,0002.53
2021-12-12 12:42:00,,0819.4,5.01,0.00,22.3,21.6,00.0,31.3,24.0,09.1,0000.0,0007.34,0003.33,0002.42
2021-12-12 12:43:00,,0819.3,5.00,0.00,22.3,21.6,00.0,31.3,24.1,09.1,0000.0,0008.00,0003.30,0002.37
2021-12-12 12:44:00,,0819.3,5.00,0.00,22.3,21.7,00.0,31.3,24.1,09.0,0000.0,0008.13,0003.26,0002.35
2021-12-12 12:45:00,,0819.3,5.00,0.00,22.3,21.7,00.0,31.3,24.1,08.9,0000.0,0008.12,0003.27,0002.39
2021-12-12 12:46:00,,0819.5,4.99,0.00,22.3,21.7,00.0,31.3,24.1,08.8,0000.0,0008.72,0003.30,0002.41
2021-12-12 12:47:00,,0819.6,5.00,0.00,22.3,21.7,00.0,31.3,24.1,08.9,0000.0,0008.71,0003.26,0002.38
2021-12-12 12:48:00,,0819.5,5.00,0.00,22.3,21.7,00.0,31.3,24.1,08.9,0000.0,0009.15,0003.23,0002.37
2021-12-12 12:49:00,,0819.5,4.99,0.00,22.3,21.7,00.0,31.3,24.0,09.0,0000.0,0009.26,0003.27,0002.40
2021-12-12 12:50:00,,0819.5,5.01,0.00,22.3,21.7,00.0,31.3,24.0,09.0,0000.0,0009.30,0003.31,0002.43
2021-12-12 12:51:00,,0819.4,5.01,0.00,22.3,21.7,00.0,31.3,24.0,09.0,0000.0,0009.33,0003.32,0002.44
2021-12-12 12:52:00,,0819.3,4.99,0.00,22.3,21.7,00.0,31.3,24.0,09.0,0000.0,0009.39,0003.32,0002.46
2021-12-12 12:53:00,,0819.3,5.01,0.00,22.3,21.7,00.0,31.3,24.1,09.0,0000.0,0009.61,0003.35,0002.51
2021-12-12 12:54:00,,0819.3,4.99,0.00,22.3,21.7,00.0,31.3,24.0,09.0,0000.0,0009.07,0003.33,0002.50
2021-12-12 12:55:00,,0819.3,5.00,0.00,22.3,21.7,00.0,31.3,24.0,09.1,0000.0,0008.80,0003.33,0002.49
2021-12-12 12:56:00,,0819.3,5.01,0.00,22.3,21.7,00.0,31.3,24.0,09.1,0000.0,0008.82,0003.32,0002.43
2021-12-12 12:57:00,,0819.3,5.00,0.00,22.3,21.6,00.0,31.3,24.0,09.1,0000.0,0008.36,0003.29,0002.40
2021-12-12 12:58:00,,0819.5,5.00,0.00,22.2,21.6,00.0,31.3,23.9,09.1,0000.0,0008.01,0003.30,0002.37
2021-12-12 12:59:00,,0819.5,5.00,0.00,22.2,21.6,00.0,31.3,23.9,09.2,0000.0,0007.48,0003.28,0002.33
